Snowfall_Accumulation
0.4 0.4 0.4 0.2 0.4 0.2 0.3 0.2 0.3 0.3 0.3 0.5 0.2 0.2 0.3 0.2 0.1 0.1 0.2 0.2 0.3 0.3 0.4 0.2 0.2 0.3 0.4 0.3 0.2 0.1 0.1 0.3 0.8 0.2 0.2 0.1 0.0 0.1 0.0 0.0 0.0 0.0 0.0
0.9 0.6 0.4 0.4 0.4 0.4 0.3 0.3 0.3 0.3 0.4 0.3 0.4 0.2 0.3 0.2 0.1 0.1 0.2 0.2 0.3 0.4 0.4 0.1 0.2 0.3 0.4 0.3 0.5 0.1 0.2 0.2 0.9 1.3 0.7 0.7 0.4 0.2 0.2 0.2 0.1 0.1 0.1
1.2 1.2 0.9 0.5 0.4 0.4 0.5 0.3 0.3 0.4 0.4 0.4 0.4 0.4 0.6 0.2 0.2 0.2 0.2 0.3 0.4 0.4 0.3 0.1 0.2 0.4 0.5 0.6 0.4 0.1 0.4 0.5 1.1 1.5 0.8 0.6 0.6 0.2 0.3 0.1 0.1 0.1 0.0
1.3 1.3 1.4 1.3 0.7 0.6 0.5 0.5 0.4 0.4 0.4 0.5 0.6 0.6 0.4 0.6 0.3 0.4 0.3 0.4 0.4 0.4 0.3 0.2 0.2 0.3 0.6 0.9 1.1 1.0 1.4 1.3 1.3 1.6 1.7 1.3 1.1 0.6 0.5 0.6 0.5 0.3 0.2
1.0 1.1 1.3 1.5 1.0 0.9 0.7 0.8 0.9 0.6 0.6 0.6 0.7 0.8 0.7 0.6 0.4 0.5 0.5 0.5 0.5 0.4 0.3 0.4 0.5 0.6 0.6 0.8 1.3 1.7 1.5 1.9 2.5 3.1 2.8 2.0 1.3 0.8 0.7 0.7 0.8 0.6 0.3
1.2 1.2 1.4 1.6 1.0 1.2 1.1 1.1 1.0 1.4 1.2 0.8 0.9 0.8 0.8 0.6 0.5 0.4 0.7 1.0 0.9 0.9 0.9 0.8 0.9 0.9 0.7 0.9 0.9 1.0 2.0 3.3 3.9 4.4 3.9 2.9 1.5 1.0 0.9 1.2 1.7 2.2 1.7
1.4 1.0 1.1 1.4 1.3 1.2 1.4 1.9 1.5 1.7 1.6 1.4 0.9 0.8 1.1 0.8 0.5 0.6 1.0 1.4 1.6 1.3 1.4 1.3 1.1 1.0 1.0 0.9 1.0 1.2 1.7 2.3 3.0 3.3 3.2 2.0 1.5 1.2 2.1 3.2 3.2 3.4 2.4
1.5 1.1 1.0 1.2 1.4 1.5 2.1 2.6 2.8 2.5 2.5 2.6 2.0 1.8 1.5 1.3 0.8 1.1 1.6 1.8 1.6 1.4 1.1 0.9 0.9 0.7 0.8 1.3 2.0 2.5 1.7 1.3 1.2 1.2 1.3 1.2 1.3 1.4 2.6 4.2 4.0 2.9 1.2
2.4 1.9 2.0 1.9 2.0 2.6 3.0 3.3 3.6 3.3 3.0 3.3 2.7 2.6 2.3 1.7 1.0 1.1 1.6 2.0 1.8 1.2 1.1 0.8 0.9 0.8 1.0 2.5 3.6 3.7 1.9 0.8 0.5 0.7 1.2 1.1 1.1 1.1 1.3 2.9 4.2 5.4 3.9
2.9 2.5 2.0 2.2 2.4 2.5 3.0 3.2 3.7 4.1 3.2 3.2 3.0 2.2 1.8 1.7 1.0 1.3 1.4 1.8 1.8 1.5 1.3 0.9 1.0 1.2 2.0 3.5 4.0 3.5 2.4 1.1 1.3 1.1 0.7 0.5 0.4 0.3 0.6 2.3 6.3 10.7 8.5
3.5 2.5 2.3 1.9 2.5 2.4 2.3 2.9 3.2 3.5 3.3 2.6 2.2 1.6 1.3 1.0 0.7 0.9 1.4 2.2 2.5 2.5 1.9 1.1 0.8 1.6 2.8 3.4 3.0 1.9 1.9 2.6 2.2 1.2 0.7 0.5 0.5 0.5 0.6 1.0 3.1 9.5 12.8
3.7 2.9 2.7 2.7 2.7 2.2 2.1 2.3 2.5 2.5 2.4 2.4 2.0 1.7 1.3 1.0 0.8 1.0 1.4 2.2 3.0 3.3 3.1 1.5 1.3 2.3 2.7 2.0 1.4 1.3 2.2 2.4 1.7 1.8 1.8 1.5 1.6 1.3 1.4 1.5 1.7 3.0 5.9
4.0 3.8 3.0 2.6 2.6 2.1 2.3 2.2 2.2 2.0 2.4 2.7 2.5 2.3 2.0 1.3 1.0 1.1 1.6 2.2 2.8 3.1 2.7 2.4 2.4 2.1 1.8 1.2 1.1 1.6 1.7 2.3 3.2 4.2 4.0 3.2 2.3 2.3 2.1 2.7 2.8 3.1 3.9
4.0 4.2 3.6 3.2 3.3 2.6 2.1 2.4 2.8 3.3 3.4 3.7 3.2 3.3 2.9 2.1 1.7 1.6 2.2 2.3 2.5 2.6 2.8 2.5 2.1 1.5 1.6 1.8 1.7 2.0 2.3 2.8 4.5 5.7 5.0 4.0 3.5 4.0 4.3 5.6 7.1 7.3 8.1
4.3 4.4 4.1 3.9 4.4 3.8 3.8 3.7 3.8 4.1 4.6 5.1 4.5 4.2 4.2 4.2 3.0 3.7 4.2 3.9 4.2 4.1 4.2 3.1 2.4 2.6 2.4 2.6 2.4 2.3 2.7 3.2 4.1 4.8 5.4 5.6 5.3 6.0 6.9 7.8 9.7 10.7 11.2
4.5 4.5 4.7 4.7 4.7 4.0 4.3 4.5 3.7 3.3 3.1 3.3 3.2 3.9 4.0 4.2 4.2 4.3 4.3 4.2 4.5 4.1 4.1 4.3 3.9 3.7 3.9 3.4 3.6 3.3 3.6 3.9 4.7 6.2 6.7 7.4 8.2 8.8 9.6 9.9 11.2 12.5 12.1
5.0 4.9 5.1 4.8 5.0 5.1 4.6 4.6 5.0 4.0 2.9 2.6 2.7 2.9 3.5 3.6 3.9 4.1 4.5 4.2 3.5 3.0 3.8 4.8 4.8 4.7 4.8 4.6 4.9 4.8 5.1 4.9 6.3 8.2 9.0 9.6 10.5 10.9 11.7 12.4 12.5 12.5 11.2
4.2 4.8 4.8 5.0 5.1 5.0 4.7 4.7 4.6 4.8 4.5 4.2 3.5 3.0 3.0 2.9 3.3 3.8 3.9 3.4 3.4 3.0 3.9 4.8 5.0 5.2 5.3 5.6 6.0 6.6 6.8 7.1 8.0 9.3 10.2 10.8 12.2 13.6 14.0 13.2 12.6 12.2 11.3
4.2 4.5 4.6 4.7 4.9 4.9 5.1 4.3 4.6 4.7 4.8 4.6 4.2 4.5 3.8 3.2 3.4 3.6 3.7 4.1 4.8 5.3 5.0 4.7 4.8 5.1 5.9 6.5 7.1 7.8 8.5 9.7 10.5 12.2 12.6 13.0 13.6 15.5 15.7 13.2 12.1 10.7 10.2
4.3 4.5 4.6 4.5 4.9 5.2 5.4 5.1 5.2 4.6 4.8 4.5 4.7 5.3 4.9 4.8 5.0 4.8 4.8 5.0 6.0 6.1 5.8 5.7 5.4 5.4 6.1 6.8 7.7 8.6 9.8 10.9 11.6 12.8 13.2 13.0 13.5 14.9 14.7 12.3 10.6 10.1 9.4
4.0 4.2 4.3 4.4 4.9 5.3 5.7 5.9 5.7 5.7 5.4 5.0 5.2 5.5 5.8 6.3 5.8 5.7 6.0 6.6 6.6 7.4 7.6 7.5 7.1 6.5 7.2 7.4 8.4 9.3 10.7 11.8 12.3 13.6 14.1 13.6 13.0 12.6 11.0 10.1 9.7 9.8 10.2
3.9 4.0 4.2 4.5 4.7 5.3 5.9 6.2 6.3 6.4 6.0 5.8 5.7 5.5 5.4 5.3 5.3 5.6 6.1 6.2 6.4 6.7 7.2 8.1 8.3 7.9 8.9 11.2 12.8 13.7 13.0 12.5 12.7 14.3 14.3 13.3 12.1 10.9 10.3 10.8 10.4 10.5 10.4
3.5 4.0 4.2 4.4 4.8 5.3 5.6 5.8 6.1 6.5 6.4 6.3 6.1 6.1 5.7 5.7 5.5 5.8 6.0 6.3 6.3 6.3 6.2 7.1 8.1 7.9 8.4 10.5 12.8 16.8 18.4 16.4 15.0 15.7 16.3 14.5 12.4 11.8 11.9 12.2 11.2 11.1 10.7
3.6 3.7 4.1 4.3 4.5 5.0 5.3 5.6 5.8 6.0 6.2 6.2 6.1 6.1 6.1 6.1 6.3 6.0 6.1 6.2 6.3 6.3 6.4 7.0 8.0 8.4 8.6 10.6 12.3 14.0 15.6 16.8 18.6 18.6 17.9 17.7 15.2 13.2 13.1 12.7 11.2 10.6 10.5
3.7 3.9 4.3 4.3 4.7 4.7 5.2 5.3 5.5 5.7 6.0 5.8 5.9 5.9 6.1 6.1 5.7 5.8 6.1 6.2 6.1 6.3 5.8 6.5 7.6 8.8 9.5 10.9 12.5 13.7 13.8 15.0 16.5 17.2 16.9 16.3 14.9 13.0 13.0 12.6 11.6 10.9 10.7
3.7 4.0 4.2 4.5 4.7 4.5 5.1 5.3 5.5 5.7 6.0 6.2 6.3 6.2 6.5 6.5 6.4 6.3 6.5 6.7 6.8 6.6 6.2 6.4 6.9 8.2 9.6 10.9 11.3 12.5 13.3 13.0 11.2 10.8 13.3 15.0 14.2 12.4 12.6 13.4 12.1 11.4 11.2